Weather History for KCNK - September, 2013

Change the Weather History Date:

Thursday, September 5, 2013

  Actual Average Record
Temperature  
Mean Temperature 75 °F 72 °F  
Max Temperature 89 °F 84 °F 107 °F (1931)
Min Temperature 60 °F 61 °F 43 °F (1962)
Degree Days  
Heating Degree Days 0 1  
Month to date heating degree days 0 3  
Since 1 July heating degree days 7 6  
Cooling Degree Days 10 8  
Month to date cooling degree days 42 43  
Year to date cooling degree days 1127 1209  
Growing Degree Days 26 (Base 50)    
Moisture  
Dew Point 62 °F    
Average Humidity 67    
Maximum Humidity 90    
Minimum Humidity 43    
Precipitation  
Precipitation 0.00 in 0.10 in 3.21 in (1905)
Month to date precipitation 0.01 0.48  
Year to date precipitation 23.58 21.58  
Snow  
Snow 0.00 in 0.00 in 0.00 in ()
Month to date snowfall 0.0 0.0  
Year to date snowfall 20.3 13.7  
Since 1 July snowfall 0.0 0.0  
Snow Depth 0.00 in    
Sea Level Pressure  
Sea Level Pressure 30.10 in    
Wind  
Wind Speed 8 mph (SE)    
Max Wind Speed 15 mph    
Max Gust Speed 20 mph    
Visibility 10 miles    
Events      
T = Trace of Precipitation, MM = Missing Value Source: NWS Daily Summary

Daily Weather History Graph

Daily Weather History Graph

Search for Another Location

Airport or City:

Trip Planner

Search our weather history database for the weather conditions in past years. The results will help you decide how hot, cold, wet, or windy it might be!

Date:

Astronomy

Sep. 05, 2013 Rise Set
Actual Time 7:02 AM CDT 7:54 PM CDT
Civil Twilight 6:35 AM CDT 8:22 PM CDT
Nautical Twilight 6:02 AM CDT 8:54 PM CDT
Astronomical Twilight 5:29 AM CDT 9:28 PM CDT
Moon 7:15 AM CDT (9/5) 7:47 PM CDT (9/5)
Length of Visible Light 13h 46m
Length of Day
12h 52m
New Moon, 0% of the Moon is Illuminated
Sep 5
New Moon
Sep 12
First Quarter
Sep 19
Full
Sep 26
Last Quarter
Oct 4
New

Hourly Weather History & Observations

Time (CDT) Temp. Heat Index Dew Point Humidity Pressure Visibility Wind Dir Wind Speed Gust Speed Precip Events Conditions
12:55 AM 66.9 °F - 57.9 °F 73% 30.08 in 10.0 mi SE 6.9 mph - N/A   Clear
1:55 AM 66.0 °F - 57.9 °F 75% 30.10 in 10.0 mi SE 6.9 mph - N/A   Clear
2:55 AM 66.9 °F - 59.0 °F 76% 30.09 in 10.0 mi SE 5.8 mph - N/A   Clear
3:55 AM 68.0 °F - 57.9 °F 70% 30.09 in 10.0 mi SSE 11.5 mph - N/A   Clear
4:55 AM 69.1 °F - 59.0 °F 70% 30.08 in 10.0 mi SSE 11.5 mph - N/A   Clear
5:55 AM 66.0 °F - 59.0 °F 78% 30.10 in 10.0 mi East 5.8 mph - N/A   Clear
6:55 AM 63.0 °F - 59.0 °F 87% 30.13 in 10.0 mi Calm Calm - N/A   Clear
7:55 AM 63.0 °F - 59.0 °F 87% 30.15 in 10.0 mi East 3.5 mph - N/A   Clear
8:55 AM 68.0 °F - 61.0 °F 78% 30.14 in 10.0 mi ESE 3.5 mph - N/A   Clear
9:55 AM 75.0 °F - 64.0 °F 69% 30.16 in 10.0 mi SE 5.8 mph - N/A   Partly Cloudy
10:55 AM 78.1 °F - 64.9 °F 64% 30.14 in 10.0 mi South 8.1 mph - N/A   Clear
11:55 AM 82.9 °F 85.0 °F 66.0 °F 56% 30.13 in 10.0 mi SE 11.5 mph - N/A   Clear
12:55 PM 84.9 °F 86.6 °F 64.9 °F 51% 30.12 in 10.0 mi SE 9.2 mph - N/A   Clear
1:55 PM 88.0 °F 89.6 °F 64.9 °F 46% 30.10 in 10.0 mi SE 12.7 mph - N/A   Clear
2:55 PM 87.1 °F 87.8 °F 63.0 °F 44% 30.09 in 10.0 mi ESE 11.5 mph 16.1 mph N/A   Clear
3:55 PM 87.1 °F 88.3 °F 64.0 °F 46% 30.07 in 10.0 mi SE 9.2 mph - N/A   Clear
4:55 PM 87.1 °F 87.8 °F 63.0 °F 44% 30.06 in 10.0 mi SE 11.5 mph - N/A   Clear
5:55 PM 86.0 °F 87.6 °F 64.9 °F 49% 30.05 in 10.0 mi SE 10.4 mph - N/A   Clear
6:55 PM 84.9 °F 86.1 °F 64.0 °F 49% 30.06 in 10.0 mi SE 9.2 mph - N/A   Clear
7:55 PM 81.0 °F 82.5 °F 64.0 °F 56% 30.06 in 10.0 mi ESE 6.9 mph - N/A   Clear
8:55 PM 78.1 °F - 62.1 °F 58% 30.06 in 10.0 mi SE 8.1 mph - N/A   Clear
9:55 PM 73.0 °F - 62.1 °F 68% 30.07 in 10.0 mi SSE 5.8 mph - N/A   Clear
10:55 PM 72.0 °F - 61.0 °F 68% 30.08 in 10.0 mi East 5.8 mph - N/A   Clear
11:55 PM 69.1 °F - 62.1 °F 78% 30.07 in 10.0 mi SE 6.9 mph - N/A   Clear